Starlink 6274

operational
NORAD ID: 56776 Int'l Des: 2023-078 Owner: SPXS Country: US Constellation: starlink
LEOCIRCULAR

About Starlink 6274

Description loading...

Live Position

Loading 3D Globe...

Upcoming Passes

Altitude History

Altitude vs Time

uPlot chart will show altitude changes over time

Two-Line Element Set

1 56776U 23078K 25354.47649289 .00000097 00000-0 15909-4 0 9993
2 56776 69.9990 164.3609 0003000 270.2506 89.8309 14.98331521141302
Epoch: Dec 20, 2025 • Age: 8 hours

Current Status

Altitude 583.4 km
Velocity 7.57 km/s
Sub-Earth Point 59.39°N, 175.46°E
Launch Date May 31, 2023
Age 2.5 years
Type internet

Technical Details

Classification Payload
Mass 305.00 kg
Dry Mass 290.00 kg
Total Mass 305.00 kg
Length 0.20 m
Diameter 2.80 m
Span 9.00 m
Shape Box + pan
Manufacturer SPXS
Bus Type Starlink
Phase Status In Orbit
Owner/State SPXS/US

Large Constellations

Loading constellations...